SWA1031 KMDW-KMKE

Flight info

Callsign SWA1031
Flight time 0h 20m
Altitude 14000
Route DCT RAYNR/N0344F130 DCT BRTMN DCT TAAYZ DCT
Aircraft B738/M-VGDW/C

Departure

Time 2026-04-20 00:38
Airport Chicago Midway International Airport (KMDW)

Arrival

Time 2026-04-20 00:59
Airport General Mitchell International Airport (KMKE)
Time Latitude Longitude Altitude Speed Heading
2026-04-20 00:16 41.78784 -87.74494 628 ft 0 kts 134°
2026-04-20 00:26 41.78795 -87.74510 635 ft 2 kts 134°
2026-04-20 00:27 41.78807 -87.74526 628 ft 2 kts 134°
2026-04-20 00:27 41.78818 -87.74541 628 ft 2 kts 134°
2026-04-20 00:27 41.78826 -87.74553 628 ft 0 kts 134°
2026-04-20 00:31 41.78825 -87.74552 628 ft 2 kts 139°
2026-04-20 00:32 41.78806 -87.74567 628 ft 5 kts 252°
2026-04-20 00:32 41.78804 -87.74633 628 ft 8 kts 251°
2026-04-20 00:32 41.78765 -87.74700 630 ft 9 kts 223°
2026-04-20 00:32 41.78708 -87.74769 631 ft 15 kts 214°
2026-04-20 00:33 41.78608 -87.74772 631 ft 15 kts 154°
2026-04-20 00:33 41.78516 -87.74656 628 ft 21 kts 133°
2026-04-20 00:33 41.78415 -87.74513 635 ft 21 kts 134°
2026-04-20 00:33 41.78296 -87.74423 628 ft 20 kts 177°
2026-04-20 00:34 41.78171 -87.74420 632 ft 8 kts 177°
2026-04-20 00:34 41.78168 -87.74419 632 ft 0 kts 177°
2026-04-20 00:34 41.78107 -87.74407 631 ft 17 kts 155°
2026-04-20 00:34 41.78031 -87.74315 628 ft 8 kts 148°
2026-04-20 00:35 41.78016 -87.74308 630 ft 0 kts 169°
2026-04-20 00:37 41.77971 -87.74333 630 ft 11 kts 216°
2026-04-20 00:37 41.77944 -87.74398 631 ft 7 kts 313°
2026-04-20 00:37 41.77949 -87.74406 627 ft 6 kts 313°
2026-04-20 00:38 41.78200 -87.74759 628 ft 98 kts 314°
2026-04-20 00:38 41.78859 -87.75677 671 ft 170 kts 315°
2026-04-20 00:38 41.79648 -87.76787 1819 ft 154 kts 315°
2026-04-20 00:38 41.80131 -87.77484 2576 ft 156 kts 307°
2026-04-20 00:39 41.80440 -87.78229 2755 ft 178 kts 291°
2026-04-20 00:39 41.80564 -87.80050 2937 ft 215 kts 264°
2026-04-20 00:39 41.80346 -87.82146 2975 ft 244 kts 278°
2026-04-20 00:40 41.81035 -87.84159 2996 ft 243 kts 315°
2026-04-20 00:40 41.82545 -87.85138 3242 ft 249 kts 355°
2026-04-20 00:40 41.84224 -87.84605 4284 ft 251 kts 18°
2026-04-20 00:40 41.85912 -87.84000 5263 ft 250 kts
2026-04-20 00:41 41.87644 -87.83699 5786 ft 252 kts
2026-04-20 00:41 41.89402 -87.83470 6492 ft 256 kts
2026-04-20 00:41 41.91185 -87.83273 7432 ft 257 kts
2026-04-20 00:41 41.92981 -87.83124 8351 ft 260 kts 359°
2026-04-20 00:42 41.94794 -87.83016 9249 ft 263 kts 358°
2026-04-20 00:42 41.96639 -87.82937 10160 ft 266 kts 357°
2026-04-20 00:42 41.98530 -87.82883 10583 ft 286 kts 356°
2026-04-20 00:42 42.00615 -87.82845 10797 ft 312 kts 356°
2026-04-20 00:43 42.02857 -87.82815 11079 ft 332 kts 356°
2026-04-20 00:43 42.05202 -87.82787 11766 ft 338 kts 356°
2026-04-20 00:43 42.07556 -87.82760 12642 ft 339 kts 355°
2026-04-20 00:43 42.09929 -87.82737 13499 ft 341 kts 354°
2026-04-20 00:44 42.12318 -87.82719 13688 ft 342 kts 354°
2026-04-20 00:44 42.14649 -87.82697 13609 ft 328 kts 354°
2026-04-20 00:44 42.16898 -87.82678 13569 ft 319 kts 354°
2026-04-20 00:44 42.19072 -87.82665 13569 ft 315 kts 354°
2026-04-20 00:45 42.21276 -87.82655 13580 ft 317 kts 354°
2026-04-20 00:45 42.23482 -87.82645 13575 ft 318 kts 354°
2026-04-20 00:45 42.25710 -87.82633 13572 ft 319 kts 354°
2026-04-20 00:45 42.27938 -87.82620 13561 ft 319 kts 354°
2026-04-20 00:46 42.30159 -87.82607 13561 ft 319 kts 354°
2026-04-20 00:46 42.32387 -87.82508 13748 ft 324 kts 358°
2026-04-20 00:46 42.34634 -87.82226 14510 ft 323 kts 359°
2026-04-20 00:46 42.36874 -87.81906 14924 ft 322 kts 359°
2026-04-20 00:47 42.39082 -87.81668 14865 ft 310 kts 351°
2026-04-20 00:47 42.41085 -87.82121 14754 ft 284 kts 339°
2026-04-20 00:47 42.42909 -87.82876 14627 ft 265 kts 336°
2026-04-20 00:47 42.44617 -87.83629 14325 ft 255 kts 334°
2026-04-20 00:48 42.46152 -87.84823 13477 ft 257 kts 315°
2026-04-20 00:48 42.47231 -87.86740 12804 ft 257 kts 299°
2026-04-20 00:48 42.48047 -87.88889 12248 ft 256 kts 296°
2026-04-20 00:48 42.48825 -87.91064 11667 ft 257 kts 296°
2026-04-20 00:49 42.49596 -87.93235 11102 ft 257 kts 296°
2026-04-20 00:49 42.50373 -87.95428 10547 ft 257 kts 296°
2026-04-20 00:49 42.51150 -87.97616 10022 ft 257 kts 296°
2026-04-20 00:49 42.51902 -87.99734 9905 ft 241 kts 296°
2026-04-20 00:50 42.52797 -88.01567 9738 ft 228 kts 315°
2026-04-20 00:50 42.54119 -88.02686 9409 ft 226 kts 339°
2026-04-20 00:50 42.55695 -88.02927 8962 ft 232 kts
2026-04-20 00:50 42.57250 -88.02357 8560 ft 235 kts 14°
2026-04-20 00:51 42.58800 -88.01567 8146 ft 236 kts 20°
2026-04-20 00:51 42.60235 -88.00481 7773 ft 236 kts 26°
2026-04-20 00:51 42.61645 -87.99349 7411 ft 234 kts 26°
2026-04-20 00:51 42.63022 -87.98241 7045 ft 232 kts 26°
2026-04-20 00:52 42.64361 -87.97167 6707 ft 230 kts 26°
2026-04-20 00:52 42.65738 -87.96066 6310 ft 229 kts 26°
2026-04-20 00:52 42.67108 -87.94977 5934 ft 227 kts 26°
2026-04-20 00:52 42.68497 -87.94130 5744 ft 213 kts 10°
2026-04-20 00:53 42.69918 -87.93764 5494 ft 203 kts
2026-04-20 00:53 42.71284 -87.93519 5230 ft 193 kts
2026-04-20 00:53 42.72582 -87.93298 4965 ft 184 kts
2026-04-20 00:53 42.73827 -87.93086 4700 ft 177 kts
2026-04-20 00:54 42.75007 -87.92883 4452 ft 167 kts
2026-04-20 00:54 42.76113 -87.92691 4251 ft 149 kts
2026-04-20 00:54 42.77119 -87.92518 4037 ft 147 kts
2026-04-20 00:54 42.78120 -87.92347 3826 ft 143 kts
2026-04-20 00:55 42.79098 -87.92178 3635 ft 141 kts
2026-04-20 00:55 42.80083 -87.92009 3443 ft 144 kts
2026-04-20 00:55 42.81070 -87.91839 3245 ft 141 kts
2026-04-20 00:55 42.82039 -87.91671 3050 ft 141 kts
2026-04-20 00:56 42.83019 -87.91503 2852 ft 143 kts
2026-04-20 00:56 42.84001 -87.91333 2648 ft 141 kts
2026-04-20 00:56 42.84967 -87.91166 2426 ft 140 kts
2026-04-20 00:56 42.85919 -87.91002 2243 ft 140 kts
2026-04-20 00:57 42.86882 -87.90836 2047 ft 139 kts
2026-04-20 00:57 42.87842 -87.90669 1840 ft 139 kts
2026-04-20 00:57 42.88818 -87.90512 1667 ft 140 kts
2026-04-20 00:57 42.89769 -87.90352 1453 ft 139 kts
2026-04-20 00:58 42.90745 -87.90160 1219 ft 146 kts
2026-04-20 00:58 42.91765 -87.89998 1014 ft 149 kts 10°
2026-04-20 00:58 42.92795 -87.89821 817 ft 149 kts 12°
2026-04-20 00:58 42.93798 -87.89641 688 ft 139 kts
2026-04-20 00:59 42.94633 -87.89495 686 ft 89 kts
2026-04-20 00:59 42.94912 -87.89450 685 ft 23 kts
2026-04-20 00:59 42.94971 -87.89511 684 ft 9 kts 277°
2026-04-20 00:59 42.94973 -87.89572 682 ft 0 kts 271°
2026-04-20 01:00 42.94974 -87.89665 687 ft 22 kts 270°
2026-04-20 01:00 42.94991 -87.89842 687 ft 8 kts 289°
2026-04-20 01:01 42.95051 -87.89887 682 ft 15 kts 334°
2026-04-20 01:01 42.95103 -87.89926 681 ft 0 kts 313°
2026-04-20 01:01 42.95106 -87.89937 681 ft 4 kts 287°
2026-04-20 01:01 42.95087 -87.89982 685 ft 6 kts 232°
2026-04-20 01:02 42.95080 -87.89992 687 ft 0 kts 230°
2026-04-20 01:02 42.95079 -87.89994 687 ft 0 kts 230°